sat.trackr.live / text

‹ back to catalog

STARLINK-36307

NORAD 68306 · 2026-057N

PAYLOAD ACTIVE UNKNOWN

§ Identity

Operator
Country
US
Launch date
2026-03-20
Launch site
AFWTR
Launch vehicle
Mass (kg)
RCS (m²)

Purposes: comms

External: N2YO · Heavens-Above · Gunter

§ Orbital elements

Epoch: 2026-09-19T15:47:25.696320Z

Period
93.91 min
Inclination
97.2836°
Eccentricity
0.0001211
Mean motion
15.33446904 rev/d
Perigee alt
464.7 km
Apogee alt
466.4 km
Semi-major
6,843.7 km
B*
4.5845e-4
RAAN
28.0561°
Arg perigee
125.9801°
Mean anomaly
234.1554°
Rev number
2,838

§ Raw data

STARLINK-363071 68306U 26057N   26262.65793630  .00014755  00000+0  45845-3 0  99902 68306  97.2836  28.0561 0001211 125.9801 234.1554 15.33446904 28387

JSON: /api/v1/satellites/68306 · /tle

For live sub-satellite position, see the globe view (requires WebGL).

§ Visibility from observer

Set your observer location to see the next 7 days of passes ≥ 10°. The values pass through the URL so the page stays shareable.

No JS? Fill the form by hand. The geolocation button needs JavaScript.